Flag for Germany Weather past 2 weeks in Osterholz-Scharmbeck, Lower Saxony, Germany

Now
59 °F

Overcast.


Feels Like: 57 °F
Forecast: 55 / 60 °F
Wind: 9 mph from Southwest

Location: Bremen

Current Time: Jul 28, 2015 at 11:04:53 AM

Latest Report: Jul 28, 2015 at 10:00 AM


Visibility: 11 mi

Pressure: 29.56 "Hg

Humidity: 88%

Dew point: 55 °F

Location of Osterholz-ScharmbeckLocation

Historic Weather in Osterholz-Scharmbeck — Graph

°F

Osterholz-Scharmbeck temperature yesterday

Maximum temperature yesterday: 67 °F (at 2:00 PM)
Minimum temperature yesterday: 55 °F (at 7:00 AM)
Average temperature yesterday: 61 °F

Past Weeks' High & Low Weather Summary

 TemperatureHumidityPressure
High87 °F (Jul 17, 3:00 PM)100% (Jul 14, 6:00 AM)30.12 "Hg (Jul 14, 6:00 AM)
Low51 °F (Jul 20, 4:00 AM)42% (Jul 17, 4:00 PM)29.41 "Hg (Jul 25, 7:00 PM)
Average64 °F77%29.87 "Hg
* Reported Jul 13 10:00 AM — Jul 28 10:00 AM, Osterholz-Scharmbeck, Weather by CustomWeather, © 2015

Note: Actual official high and low records may vary slightly from our data, if they occured in-between our weather recording intervals... More about our weather records

Advertising

Osterholz-Scharmbeck weather history for previous 24 hours

 ConditionsComfort  
Time TempWeatherWind HumidityBarometerVisibility
10:00 AM
Tue, Jul 28
59 °FOvercast.9 mph88%29.56 "Hg11 mi
9:00 AM58 °FOvercast.9 mph89%29.55 "Hg7 mi
8:00 AM58 °FOvercast.9 mph88%29.54 "Hg9 mi
7:00 AM58 °FOvercast.8 mph88%29.50 "Hg11 mi
6:00 AM57 °FOvercast.7 mph90%29.50 "Hg11 mi
4:00 AM58 °FOvercast.7 mph89%29.50 "Hg16 mi
3:00 AM59 °FSprinkles. Overcast.7 mph91%29.50 "Hg7 mi
2:00 AM60 °FSprinkles. Overcast.6 mph89%29.50 "Hg12 mi
1:00 AM60 °FSprinkles. Overcast.8 mph88%29.50 "Hg16 mi
11:00 PM
Mon, Jul 27
61 °FOvercast.5 mph93%29.50 "Hg12 mi
10:00 PM60 °FSprinkles. Overcast.6 mph92%29.50 "Hg7 mi
9:00 PM61 °FOvercast.6 mph87%29.50 "Hg12 mi
8:00 PM62 °FSprinkles. Overcast.8 mph85%29.50 "Hg11 mi
7:00 PM64 °FPartly sunny.9 mph78%29.50 "Hg22 mi
6:00 PM66 °FPartly sunny.9 mph77%29.47 "Hg22 mi
5:00 PM66 °FOvercast.12 mph77%29.47 "Hg22 mi
4:00 PM65 °FSprinkles. Partly sunny.8 mph86%29.44 "Hg22 mi
3:00 PM64 °FPartly sunny.5 mph89%29.44 "Hg22 mi
2:00 PM67 °FOvercast.7 mph80%29.47 "Hg22 mi
1:00 PM64 °FSprinkles. Overcast.7 mph80%29.47 "Hg19 mi
12:00 PM62 °FOvercast.7 mph85%29.47 "Hg12 mi
Weather by CustomWeather, © 2015

See weather overviewHow to use our weather pages